Regional Weather Roundup
Issued by NWS State College, PA

Home | Current Version | Previous Version | Graphics & Text | Print | Product List | Glossary On
Versions: 1 2 3 4 5 6 7 8 9 10 11 12 13 14 15 16 17 18 19 20 21 22 23 24 25 26 27 28 29 30 31 32 33 34 35 36 37 38 39 40 41 42 43 44 45 46 47 48 49 50
000
ASUS41 KCTP 252303
RWRCTP

REGIONAL WEATHER ROUNDUP
NATIONAL WEATHER SERVICE STATE COLLEGE PA
700 PM EDT THU AUG 25 2016

Note: "fair" indicates few or no clouds below 12,000 feet with no
significant weather and/or obstructions to visibility.

* = STATION THAT DOES NOT REPORT PRECIPITATION /E.G. RAIN...SNOW...ETC/
    THUNDER OR FOG.

PAZ002>004-007>009-013>016-020>023-029>032-260000-
WESTERN PENNSYLVANIA

CITY           SKY/WX    TMP DP  RH WIND       PRES   REMARKS
ERIE           CLOUDY    79  74  84 SW5       29.96S
MEADVILLE      HVY RAIN  76  70  82 NW5       30.00R
FRANKLIN*        N/A     82  70  65 S10       30.01F
NEW CASTLE     FAIR      87  73  62 SW7       29.99F
BEAVER COUNTY  SUNNY     86  70  58 SW9G17    30.01F
BUTLER*        NOT AVBL
PITTSBURGH INT PTSUNNY   86  71  60 SW8       30.02S
PITTSBURGH     SUNNY     84  71  65 S8        30.02F
INDIANA*       MOSUNNY   82  73  74 SW8       30.07S
LATROBE        MOSUNNY   82  73  74 SW14      30.05S
WASHINGTON CO* MOSUNNY   84  73  70 SW6       30.05F
$$

PAZ004>006-010>012-017>019-024>028-033>037-041-042-045-046-049>053-260000-
CENTRAL PENNSYLVANIA

CITY           SKY/WX    TMP DP  RH WIND       PRES   REMARKS
BRADFORD       PTCLDY    78  69  73 SW6       30.05S
DUBOIS         SUNNY     81  68  64 SW8       30.05S
CLEARFIELD     PTCLDY    83  69  62 SW12      30.04S
JOHNSTOWN      PTCLDY    80  70  71 W8        30.10S
ALTOONA        CLEAR     83  69  62 W3        30.06S
STATE COLLEGE  PTCLDY    82  70  65 SW9       30.02S
WILLIAMSPORT   CLEAR     85  71  63 S5        29.96S
SELINSGROVE    CLEAR     84  74  71 VRB3      29.99S
FT INDIANTOWN  CLEAR     83  73  71 VRB5      30.00S
CAPITAL CITY   CLEAR     88  70  55 S6        29.98F
HARRISBURG     PTCLDY    85  77  77 SE7       29.98S HX  95
YORK           PTCLDY    86  70  58 SW5       30.00S
$$

PAZ038>040-043-044-047-048-054-055-060>062-067>071-260000-
EASTERN PENNSYLVANIA

CITY           SKY/WX    TMP DP  RH WIND       PRES   REMARKS
SCRANTON       CLEAR     79  72  79 SW3       30.01F
MOUNT POCONO   CLEAR     73  68  84 W7        30.07F
ALLENTOWN      PTCLDY    83  71  67 SW7       30.00F
QUAKERTOWN*    CLOUDY    81  72  74 CALM      30.03S
READING        PTCLDY    82  71  69 S7        30.00S
LANCASTER      CLEAR     83  75  77 S8        30.00F
COATESVILLE    PTCLDY    79  72  78 VRB5      30.05S
POTTSTOWN      PTCLDY    81  71  71 S6        30.03F
BLUE BELL      CLOUDY    81  70  69 SW8       30.02S
DOYLESTOWN     CLOUDY    83  71  67 S8        30.01S
WILLOW GROVE   NOT AVBL
NORTH PHILA    CLOUDY    84  71  65 MISG      30.03R
PHILADELPHIA   MOCLDY    84  71  65 SW13      30.02S
$$



USA.gov is the U.S. government's official web portal to all federal, state and local government web resources and services.